Regional Weather Roundup
Issued by NWS

Home | Current Version | Previous Version | Text Only | Print | Product List | Glossary On
Versions: 1 2 3 4 5 6 7 8 9 10 11 12 13 14 15 16 17 18 19 20 21 22 23 24 25 26 27 28 29 30 31 32 33 34 35 36 37 38 39 40 41 42 43 44 45 46 47 48 49 50
000
ASUS43 KDTX 042301
RWRMI
MICHIGAN HOURLY REGIONAL WEATHER ROUNDUP
NATIONAL WEATHER SERVICE DETROIT/PONTIAC MI
700 PM EDT TUE AUG 04 2015

NOTE: "FAIR" INDICATES FEW OR NO CLOUDS BELOW 12,000 FEET WITH NO
SIGNIFICANT WEATHER AND/OR OBSTRUCTION TO VISIBILITY.

MIZ047>049-052>055-059>063-066>070-074>076-081>083-050000-
SOUTHEAST LOWER MICHIGAN

CITY           SKY/WX    TMP DP  RH WIND       PRES   REMARKS
ADRIAN         MOSUNNY   76  57  51 NW7       29.95S
ALMA           SUNNY     74  52  45 W12G17    29.93S
ANN ARBOR      SUNNY     78  54  43 W12G21    29.93
BAD AXE        CLOUDY    67  59  75 NE3       29.92S
CARO           CLOUDY    72  62  71 NW5       29.91S
DETROIT CITY   SUNNY     79  55  43 NW7       29.91F
DETROIT        PTSUNNY   78  55  44 W9        29.93R
FLINT          MOSUNNY   78  54  43 W14       29.92S
GROSSE ILE     MOSUNNY   81  54  39 W9        29.91S
HILLSDALE      MOSUNNY   75  54  48 W7        29.97S
HOWELL         SUNNY     76  51  40 W10G18    29.94S

CITY           SKY/WX    TMP DP  RH WIND       PRES   REMARKS
JACKSON        PTSUNNY   74  53  48 W10G18    29.95S
LAMBERTVILLE   MOSUNNY   77  57  49 W3        29.95S
LANSING        MOSUNNY   77  55  46 NW10      29.95S
LAPEER         PTSUNNY   77  53  43 W14G25    29.92S
MASON          PTSUNNY   73  52  47 W12G20    29.95S
MONROE         MOSUNNY   79  57  46 W10G17    29.92S
MT. CLEMENS    MOSUNNY   78  56  47 W10       29.89F
PONTIAC        MOSUNNY   77  55  46 NW15      29.92S
PORT HURON     CLOUDY    70  63  78 CALM      29.92S
TRI CITIES     MOSUNNY   77  56  48 W9        29.92S
MIDLAND        FAIR      77  53  42 W9        29.90S
TROY           SUNNY     79  53  40 W9        29.93F
SAGINAW HB     MOSUNNY   75  59  57 NW12G20   29.90S
$$
MIZ043>046-050>051-056>058-064>065-071>073-077>080-050000-
SOUTHWEST LOWER MICHIGAN

CITY           SKY/WX    TMP DP  RH WIND       PRES   REMARKS
BATTLE CREEK   MOSUNNY   75  57  53 W10       29.96F
BENTON HARBOR  PTSUNNY   74  58  57 VRB5      29.96F
BIG RAPIDS     MOSUNNY   72  48  42 NW7       29.94S
COLDWATER      FAIR      74  51  45 W7        29.96F
FREMONT        FAIR      73  49  41 NW6       29.95S
HOLLAND        SUNNY     75  55  49 NW8       29.97F
GRAND RAPIDS   MOSUNNY   76  54  46 NW14      29.95F
IONIA          FAIR      75  53  45 NW12      29.94S
KALAMAZOO      PTSUNNY   76  54  46 W12       29.96F
LUDINGTON      SUNNY     76  58  53 W3        29.95S
MARSHALL       CLOUDY    75  54  47 W8        29.95F
MOUNT PLEASANT SUNNY     76  52  42 W10       29.93R
MUSKEGON       MOSUNNY   75  53  46 NW12      29.95F
SOUTH HAVEN    MOSUNNY   74  56  55 N5        29.97S
$$
MIZ016>042-050000-
NORTHERN LOWER MICHIGAN

CITY           SKY/WX    TMP DP  RH WIND       PRES   REMARKS
ALPENA         SUNNY     71  50  47 NW10      29.92R
BEAVER ISLAND  CLOUDY    65  56  70 W9        29.95S
BELLAIRE       CLOUDY    67  54  63 NW5       29.95S
CADILLAC       PTSUNNY   69  54  58 NW16      29.96R
CHARLEVOIX     MOSUNNY   67  55  65 W8        29.98R
FRANKFORT      PTSUNNY   69  58  68 NW6       29.95S
GAYLORD        CLOUDY    65  53  65 NW7       29.96R
GRAYLING       CLOUDY    67  51  56 NW7       29.96R
HARBOR SPRINGS PTSUNNY   66  56  69 W3        29.94S
HOUGHTON LAKE  CLOUDY    68  54  60 NW12      29.95R
MANISTEE       SUNNY     72  54  53 NW6       29.96S
OSCODA         CLOUDY    65  59  79 NE9       29.91S
PELLSTON       MOSUNNY   70  50  49 W12       29.94S
ROGERS CITY    SUNNY     67  52  59 NW10G18   29.93R
TRAVERSE CITY  PTSUNNY   69  54  58 N6        29.94R
$$
MIZ007>008-015-050000-
EASTERN UPPER MICHIGAN

CITY           SKY/WX    TMP DP  RH WIND       PRES   REMARKS
KINROSS        MOSUNNY   63  48  59 NW15      29.93R
MACKINAC ISLAN MOSUNNY   67  47  47 NW9       29.92S
NEWBERRY       PTSUNNY   62  49  60 NW9G17    29.95R
S. S. MARIE    SUNNY     61  48  62 NW16      29.93R
MUNISING         N/A     64  53  67 NW13      29.97S
$$
MIZ004>006-011>014-085-050000-
CENTRAL UPPER MICHIGAN

CITY           SKY/WX    TMP DP  RH WIND       PRES   REMARKS
MANISTIQUE     CLOUDY    64  50  60 NW12      29.95S
ESCANABA       SUNNY     66  54  63 NE10      29.95S
MENOMINEE      MOSUNNY   68  55  64 E8        29.94S
$$
MIZ001>003-009>011-084-050000-
WESTERN UPPER MICHIGAN

CITY           SKY/WX    TMP DP  RH WIND       PRES   REMARKS
IRON MOUNTAIN  PTSUNNY   70  49  47 NW14      29.96R
HOUGHTON       SUNNY     63  48  58 NW10      29.99R
COPPER HARBOR    N/A     64  51  62 N15       29.97S
IRONWOOD       SUNNY     64  50  59 N8        29.98R
$$

ABBREVIATIONS USED IN REMARKS
   TC - TEMPERATURE IN CELSIUS
  WCI - WIND CHILL INDEX
   HX - HEAT INDEX
  VSB - VISIBILITY




USA.gov is the U.S. government's official web portal to all federal, state and local government web resources and services.